Starlink 11381

operational
NORAD ID: 62094 Int'l Des: 2024-220 Owner: SPXS Country: US Constellation: starlink
LEOCIRCULAR

Über Starlink 11381

Beschreibung wird geladen...

Live-Position

3D-Globus wird geladen...

Nächste Überflüge

Höhenverlauf

Altitude vs Time

uPlot chart will show altitude changes over time

Zweizeiliger Elementsatz

1 62094U 24220G 25353.76364885 .00148774 00000-0 11415-2 0 9991
2 62094 43.0006 164.7732 0003172 272.3998 87.6507 15.70852846 62387
Epoch: 19. Dez. 2025 • Age: 25 hours

Aktueller Status

Höhe 361.8 km
Geschwindigkeit 7.69 km/s
Subsatellitenpunkt -28.42°S, 11.35°W
Startdatum 25. Nov. 2024
Alter 1 years
Typ internet

Technische Details

Klassifizierung Payload
Masse 960.00 kg
Trockenmasse 910.00 kg
Gesamtmasse 960.00 kg
Länge 0.30 m
Durchmesser 4.10 m
Spannweite 29.00 m
Form Box + pan
Hersteller SPXS
Bus-Typ Starlink V2MD
Phasenstatus In Orbit
Besitzer/Staat SPXS/US

Große Konstellationen

Loading constellations...